Location: La Brionne
(46.1728°N, 1.7849°E)
Time: 08:47:26
(UTC+00:00)

Cosmos 2322 Rocket - Pass Details

Date: 16 June 2021
Orbit: 833 x 850 km, 71.0° (Epoch: 01 August)

Event Time Altitude Azimuth Distance (km) Brightness Sun altitude
Rises 21:43:18 0° 223° (SW) 3,400 5.2 -14.4°
Reaches altitude 10° 21:45:50 10° 229° (SW) 2,470 4.5 -14.7°
Maximum altitude 21:51:18 48° 303° (WNW) 1,102 3.2 -15.1°
Drops below altitude 10° 21:56:50 10° 17° (NNE) 2,487 5.3 -15.6°
Sets 21:59:23 0° 24° (NNE) 3,425 6.0 -15.8°
